[[{"header":{"parameterUnit":"m.s-1","parameterCategory":1,"la1":30.2991,"la2":30.254,"lo1":-89.0895,"lo2":-89.0444,"dy":0.0017,"dx":0.0017,"nx":28,"ny":28,"refTime":"2025-08-07T03:00:00:Z","depth":0,"parameterNumber":2,"parameterNumberName":"U-component_of_WINDS"},"data":[0,0,0,0,0,0,0,0,0,0,0,0,0,0,0,0,0,0,0,0,0,0,0,0,0,0,0,0,0,0,0,0,0,0,0,0,0,0,0,0,0,0,0,0,0,0,0,0,0,0,0,0,0,0,0,0,0,0,-3.0072,-3.0074,0,-3.0207,-3.0209,-3.021,-3.0229,-3.0227,-3.0226,-3.0225,-3.0365,-3.037,-3.0375,0,0,0,0,0,0,0,0,0,0,0,0,0,-2.9832,-2.9836,-3.0072,-3.0074,-3.0075,-3.0207,-3.0209,-3.0211,-3.0229,-3.0227,-3.0226,-3.0224,-3.0364,-3.037,-3.0376,0,0,0,0,0,0,0,0,0,0,0,0,0,-2.9949,-2.9838,-3.0072,-3.01,-3.0104,-3.0207,-3.0209,-3.0211,-3.0229,-3.0227,-3.0225,-3.0224,-3.0362,-3.0369,-3.0376,-3.046,0,0,-3.0399,-3.0402,0,0,0,0,0,0,0,0,-2.9942,-2.9957,-3.0094,-3.0099,-3.0103,-3.0199,-3.0176,-3.0295,-3.023,-3.0182,-3.0225,-3.0223,-3.0312,-3.0323,-3.0353,-3.0467,-3.0473,-3.04,-3.0404,-3.0407,-3.0409,0,0,0,0,0,0,0,-2.9934,-2.9952,-3.0126,-3.0096,-3.0102,-3.0107,-3.0122,-3.0198,-3.0256,-3.0186,-3.0188,-3.0203,-3.0314,-3.0346,-3.0356,-3.0475,-3.0399,-3.0406,-3.0411,-3.0413,-3.0665,-3.0667,0,0,0,0,0,0,-2.992,-2.9945,-3.0121,-3.013,-3.0016,-3.0113,-3.0129,-3.017,-3.0255,-3.0266,-3.0205,-3.0204,-3.0334,-3.0348,-3.0361,-3.0465,-3.0407,-3.0414,-3.0418,-3.0663,-3.0665,-3.0668,0,0,0,0,0,0,-2.9915,-2.9936,-3.0116,-3.0038,-3.0061,-3.0119,-3.0165,-3.0174,-3.0206,-3.0269,-3.028,-3.0226,-3.0333,-3.0351,-3.0435,-3.047,-3.0417,-3.0424,-3.066,-3.0664,-3.0667,-3.0673,0,0,0,0,0,0,-2.9908,-2.9934,-2.9966,-3.0038,-3.0065,-3.0187,-3.0167,-3.0178,-3.0218,-3.0218,-3.0293,-3.0303,-3.0333,-3.0424,-3.0443,-3.0479,-3.043,-3.0657,-3.0662,-3.0666,-3.067,-3.0676,-3.0681,0,0,0,0,0,-2.9899,-2.9962,-2.9967,-2.9988,-3.0106,-3.0189,-3.0204,-3.0237,-3.0221,-3.0254,-3.0295,-3.0301,-3.0463,-3.0433,-3.0454,-3.0493,-3.0655,-3.066,-3.0665,-3.0667,-3.0675,-3.0681,0,0,0,0,0,0,-2.9893,-2.9972,-2.9979,-3.0067,-3.0121,-3.0192,-3.0234,-3.0244,-3.0304,-3.0301,-3.034,-3.0356,-3.0439,-3.0475,-3.0439,-3.0579,-3.0558,-3.0567,-3.0552,-3.056,-3.0565,-3.0555,-3.0436,0,0,0,0,0,-2.9902,-2.9962,-3.0028,-3.01,-3.0126,-3.0176,-3.0213,-3.0233,-3.0291,-3.0314,-3.0361,-3.0418,-3.0482,-3.0523,-3.0585,-3.0675,-3.0692,-3.0713,-3.0718,-3.0723,-3.073,-3.0781,-3.079,-3.0685,-3.0685,-3.0684,0,0,-2.9921,-2.9971,-3.0007,-3.01,-3.0144,-3.0206,-3.0195,-3.0261,-3.0307,-3.0325,-3.0407,-3.0444,-3.0509,-3.0597,-3.0638,-3.0629,-3.0763,-3.0729,-3.0732,-3.0738,-3.0787,-3.0797,-3.0806,-3.0688,-3.0687,-3.0687,0,0,-2.9986,-3.0031,-3.0095,-3.0139,-3.0206,-3.0239,-3.0254,-3.0324,-3.0349,-3.0432,-3.0447,-3.0503,-3.0612,-3.0658,-3.0696,-3.078,-3.0787,-3.0799,-3.0829,-3.0877,-3.0886,-3.0893,-3.0923,-3.0933,-3.0807,-3.0807,-3.0807,0,-3.0001,-3.0094,-3.0127,-3.0192,-3.0233,-3.0251,-3.0317,-3.0359,-3.0443,-3.0471,-3.046,-3.0597,-3.0643,-3.0741,-3.0762,-3.0792,-3.0811,-3.079,-3.0882,-3.089,-3.0897,-3.0926,-3.0937,-3.0808,-3.0807,-3.0807,-3.0807,0,-3.0109,-3.0173,-3.0217,-3.0297,-3.0343,-3.0408,-3.0451,-3.0494,-3.051,-3.0544,-3.0629,-3.0685,-3.0758,-3.0783,-3.0801,-3.0885,-3.0877,-3.0874,-3.0853,-3.0907,-3.0935,-3.0946,-3.0809,-3.0809,-3.0808,-3.0808,0,0,-3.0173,-3.0271,-3.0286,-3.0323,-3.0398,-3.0449,-3.0515,-3.0587,-3.0622,-3.068,-3.0737,-3.0829,-3.0826,-3.0869,-3.0892,-3.0935,-3.0997,-3.0926,-3.0928,-3.0937,-3.1093,-3.1094,-3.1107,-3.1003,-3.1005,-3.1007,-3.1087,0,-3.0247,-3.0365,-3.0396,-3.0496,-3.0556,-3.0575,-3.0633,-3.0686,-3.0719,-3.0776,-3.0814,-3.0878,-3.087,-3.0896,-3.0939,-3.098,-3.1029,-3.0975,-3.1056,-3.1059,-3.1038,-3.1121,-3.1123,-3.1196,-3.1098,-3.11,-3.1101,0,-3.0349,-3.0407,-3.0513,-3.0581,-3.0607,-3.0658,-3.0726,-3.078,-3.0841,-3.0862,-3.091,-3.0929,-3.1,-3.0977,-3.1075,-3.1037,-3.1073,-3.1099,-3.1102,-3.111,-3.1083,-3.1131,-3.122,-3.123,-3.1119,-3.1117,-3.1116,0,-3.0384,-3.049,-3.0567,-3.0598,-3.0679,-3.0714,-3.075,-3.0809,-3.085,-3.091,-3.0937,-3.1005,-3.1042,-3.1094,-3.1131,-3.1111,-3.1226,-3.1206,-3.1246,-3.1245,-3.1269,-3.1267,-3.1364,-3.1293,-3.1293,-3.1293,-3.1293,0,-3.0463,-3.0526,-3.0584,-3.0631,-3.0703,-3.074,-3.081,-3.0847,-3.0899,-3.0954,-3.0976,-3.1027,-3.1073,-3.1131,-3.1161,-3.1237,-3.1254,-3.1274,-3.1281,-3.1272,-3.1269,-3.1295,-3.129,-3.1296,-3.1295,-3.1295,-3.1294,0,-3.0514,-3.0555,-3.064,-3.071,-3.0729,-3.0779,-3.0839,-3.0886,-3.092,-3.099,-3.1008,-3.1063,-3.1132,-3.1175,-3.1263,-3.1283,-3.1367,-3.1373,-3.1346,-3.1349,-3.1387,-3.1382,-3.1503,-3.1521,-3.1439,-3.1439,-3.144,0,-3.0561,-3.0611,-3.0685,-3.0723,-3.0759,-3.082,-3.0862,-3.09,-3.0943,-3.1016,-3.1054,-3.1125,-3.1183,-3.1293,-3.1341,-3.1409,-3.1416,-3.1454,-3.1426,-3.1415,-3.1416,-3.1412,-3.1417,-3.1458,-3.1459,-3.1459,-3.146,0,-3.064,-3.0658,-3.0717,-3.0783,-3.0832,-3.0886,-3.094,-3.097,-3.1018,-3.1065,-3.1136,-3.1181,-3.1271,-3.1341,-3.1413,-3.145,-3.1463,-3.1468,-3.1481,-3.1472,-3.1454,-3.1463,-3.1358,-3.1465,-3.1464,-3.1464,-3.1464,-3.1464,-3.0691,-3.0736,-3.0795,-3.086,-3.0904,-3.0954,-3.1002,-3.1042,-3.1101,-3.1176,-3.1196,-3.127,-3.133,-3.1428,-3.1467,-3.1526,-3.1521,-3.154,-3.1544,-3.1548,-3.1549,-3.1445,-3.154,-3.154,-3.154,-3.154,-3.154,0,-3.0771,-3.081,-3.0869,-3.0944,-3.0995,-3.1002,-3.1062,-3.1105,-3.1169,-3.1224,-3.1281,-3.1362,-3.143,-3.1483,-3.1553,-3.159,-3.1598,-3.1607,-3.1605,-3.1613,-3.155,-3.1531,-3.16,-3.16,-3.16,-3.16,-3.16,-3.16,-3.0818,-3.0894,-3.0919,-3.1017,-3.1056,-3.1128,-3.1161,-3.1208,-3.1252,-3.1341,-3.1397,-3.1431,-3.1486,-3.156,-3.1623,-3.1637,-3.1662,-3.167,-3.1685,-3.1624,-3.1618,-3.1611,-3.1594,-3.1675,-3.1675,-3.1744,-3.1744,-3.1745]},{"header":{"parameterUnit":"m.s-1","parameterCategory":1,"la1":30.2991,"la2":30.254,"lo1":-89.0895,"lo2":-89.0444,"dy":0.0017,"dx":0.0017,"nx":28,"ny":28,"refTime":"2025-08-07T03:00:00:Z","depth":0,"parameterNumber":3,"parameterNumberName":"V-component_of_WINDS"},"data":[0,0,0,0,0,0,0,0,0,0,0,0,0,0,0,0,0,0,0,0,0,0,0,0,0,0,0,0,0,0,0,0,0,0,0,0,0,0,0,0,0,0,0,0,0,0,0,0,0,0,0,0,0,0,0,0,0,0,4.0324,4.0324,0,4.0345,4.0345,4.0345,4.0358,4.0358,4.0358,4.0358,4.0377,4.0377,4.0378,0,0,0,0,0,0,0,0,0,0,0,0,0,4.0291,4.0291,4.0323,4.0324,4.0324,4.0345,4.0345,4.0345,4.0358,4.0358,4.0358,4.0358,4.0377,4.0377,4.0378,0,0,0,0,0,0,0,0,0,0,0,0,0,4.0308,4.0292,4.0323,4.0333,4.0334,4.0345,4.0345,4.0346,4.0358,4.0358,4.0358,4.0358,4.0377,4.0377,4.0378,4.038,0,0,4.038,4.038,0,0,0,0,0,0,0,0,4.0307,4.0309,4.0331,4.0332,4.0333,4.0349,4.0341,4.0357,4.0358,4.0349,4.0358,4.0358,4.0367,4.0369,4.0373,4.0381,4.0382,4.038,4.038,4.0381,4.0381,0,0,0,0,0,0,0,4.0306,4.0308,4.0332,4.0331,4.0333,4.0335,4.0338,4.0344,4.0357,4.0349,4.035,4.0353,4.0368,4.0372,4.0373,4.0382,4.038,4.0381,4.0381,4.0381,4.0395,4.0394,0,0,0,0,0,0,4.0303,4.0307,4.0331,4.0333,4.032,4.0336,4.0339,4.0344,4.0357,4.0359,4.0353,4.0353,4.0371,4.0372,4.0374,4.0378,4.0381,4.0381,4.0382,4.0395,4.0395,4.0394,0,0,0,0,0,0,4.0303,4.0305,4.033,4.032,4.0324,4.0336,4.0342,4.0344,4.0348,4.036,4.0362,4.0355,4.0371,4.0373,4.0379,4.0379,4.0382,4.0382,4.0395,4.0395,4.0394,4.0385,0,0,0,0,0,0,4.0302,4.0305,4.0307,4.032,4.0324,4.0336,4.0342,4.0345,4.035,4.0351,4.0362,4.0364,4.0371,4.0378,4.038,4.038,4.0383,4.0395,4.0395,4.0395,4.0386,4.0385,4.0384,0,0,0,0,0,4.0301,4.0302,4.0307,4.0309,4.0326,4.0336,4.0338,4.0347,4.035,4.0351,4.0358,4.0363,4.0378,4.0378,4.038,4.0381,4.0395,4.0395,4.0395,4.0386,4.0385,4.0384,0,0,0,0,0,0,4.0287,4.0304,4.0309,4.0316,4.0324,4.0338,4.034,4.0346,4.0353,4.0353,4.0363,4.0366,4.0371,4.0376,4.0376,4.0384,4.0387,4.0387,4.038,4.0379,4.0379,4.0377,4.0383,0,0,0,0,0,4.0285,4.0292,4.0307,4.0311,4.0315,4.0327,4.0331,4.0338,4.0347,4.035,4.0358,4.0366,4.0372,4.0376,4.0383,4.0387,4.0389,4.0388,4.0387,4.0387,4.0387,4.039,4.0389,4.0394,4.0394,4.0394,0,0,4.028,4.0291,4.0295,4.0309,4.0316,4.0323,4.033,4.0336,4.0341,4.035,4.0357,4.0363,4.0373,4.0378,4.0381,4.0383,4.0386,4.0387,4.0386,4.0386,4.0389,4.0389,4.0388,4.0394,4.0394,4.0394,0,0,4.0276,4.0284,4.0289,4.0297,4.0309,4.0317,4.0318,4.0331,4.0336,4.0343,4.0351,4.0356,4.0367,4.0374,4.0378,4.0377,4.0382,4.0379,4.0375,4.0378,4.0377,4.0377,4.0377,4.0376,4.0379,4.0379,4.0379,0,4.0268,4.0279,4.0291,4.0297,4.0303,4.0314,4.0319,4.0325,4.0338,4.0341,4.0344,4.0358,4.0365,4.0372,4.0372,4.0376,4.0377,4.0377,4.0377,4.0377,4.0376,4.0376,4.0376,4.0378,4.0379,4.0379,4.0379,0,4.027,4.0277,4.028,4.0293,4.03,4.0305,4.0317,4.0321,4.0328,4.0335,4.0342,4.0351,4.036,4.0362,4.0368,4.037,4.0371,4.0375,4.0378,4.0375,4.0375,4.0375,4.0378,4.0378,4.0378,4.0378,0,0,4.0255,4.0277,4.0277,4.0284,4.0299,4.0304,4.031,4.032,4.0324,4.0333,4.0338,4.0347,4.0351,4.0357,4.0363,4.0366,4.0364,4.0369,4.0369,4.0368,4.0368,4.0365,4.0364,4.0368,4.0368,4.0368,4.0367,0,4.0253,4.0265,4.0276,4.0284,4.0291,4.0302,4.0307,4.0316,4.0324,4.033,4.0338,4.0345,4.035,4.0353,4.0356,4.0364,4.0364,4.0364,4.0372,4.0372,4.0369,4.0364,4.0361,4.0359,4.0367,4.0367,4.0367,0,4.025,4.026,4.027,4.0285,4.0288,4.0292,4.0303,4.0309,4.032,4.0325,4.0332,4.0339,4.0345,4.0348,4.0357,4.0357,4.036,4.0365,4.0365,4.0366,4.0369,4.0365,4.0359,4.0359,4.0367,4.0367,4.0367,0,4.0239,4.0255,4.0263,4.0268,4.0285,4.0288,4.0296,4.0306,4.0312,4.0321,4.0324,4.0333,4.0338,4.0345,4.0354,4.0355,4.0361,4.0365,4.0365,4.0365,4.0365,4.0365,4.036,4.0369,4.0369,4.0369,4.0369,0,4.0234,4.0239,4.0258,4.0263,4.0269,4.0281,4.0287,4.0295,4.0304,4.031,4.032,4.0325,4.0337,4.0344,4.0351,4.0357,4.0359,4.0363,4.0365,4.0362,4.0361,4.0364,4.0364,4.0368,4.0368,4.0368,4.0368,0,4.0222,4.0235,4.0244,4.0261,4.0265,4.0269,4.0282,4.0287,4.0296,4.0303,4.0305,4.0318,4.0327,4.0337,4.0348,4.0353,4.0358,4.0361,4.0355,4.0356,4.0355,4.0355,4.0351,4.0352,4.036,4.036,4.036,0,4.0218,4.0223,4.024,4.0246,4.0253,4.0261,4.0268,4.0281,4.0286,4.03,4.0302,4.0312,4.032,4.0332,4.0342,4.0351,4.0354,4.0352,4.0355,4.0352,4.0353,4.0353,4.0353,4.0351,4.0351,4.0351,4.035,0,4.0209,4.0216,4.0225,4.0237,4.0245,4.0255,4.0264,4.0268,4.0282,4.0289,4.0298,4.0304,4.0317,4.0326,4.0336,4.0342,4.0348,4.035,4.035,4.0347,4.0343,4.0345,4.0352,4.0349,4.035,4.035,4.035,4.035,4.0201,4.0206,4.0219,4.023,4.0239,4.0248,4.0254,4.0264,4.0273,4.0284,4.0291,4.03,4.0311,4.0326,4.0332,4.0339,4.0341,4.0342,4.0342,4.0342,4.0341,4.0343,4.0341,4.0341,4.0341,4.0341,4.0341,0,4.0192,4.0202,4.0212,4.0226,4.0235,4.0242,4.0253,4.0259,4.0268,4.0278,4.0287,4.0297,4.0307,4.0318,4.0327,4.0331,4.0334,4.0333,4.0332,4.0334,4.0338,4.0337,4.033,4.033,4.033,4.033,4.033,4.033,4.0189,4.0198,4.0206,4.022,4.0229,4.0239,4.0246,4.0254,4.0263,4.0275,4.0283,4.0291,4.0302,4.0312,4.0321,4.0324,4.0327,4.0325,4.0329,4.0332,4.0333,4.0334,4.0333,4.0325,4.0325,4.0323,4.0323,4.0323]}]]